This demonstration page uses our WeatherBlox Daily Observations layout. Learn more.

Left ArrowRight Arrow

Hourly Observations for October 27, 2019

Temp ( °F °C ) Dew Point ( °F °C ) Humidity (%) Winds ( mph kmh ) Pressure ( in mb ) Visibility ( mi km ) Precip ( " mm )
12:04 am 00:04 Mostly Cloudy 65 18.3 62 16.7 90 90 SW 13 20 29.62 1003 10 16 0.00 0.00
12:53 am 00:53 Mostly Cloudy 64 17.8 60 15.6 87 87 SSW 9 15 29.61 1003 10 16 0.00 0.00
1:53 am 01:53 Mostly Clear 62 16.7 56 13.3 80 80 SSW 12 19 29.62 1003 10 16 0.00 0.00
2:53 am 02:53 Mostly Cloudy 59 15 53 11.7 81 81 SW 13 20 29.67 1005 10 16 0.00 0.00
3:53 am 03:53 Cloudy 57 13.9 51 10.6 81 81 SW 10 17 29.69 1006 10 16 0.00 0.00
4:53 am 04:53 Cloudy 56 13.3 50 10 81 81 WSW 9 15 29.73 1007 10 16 0.00 0.00
5:53 am 05:53 Cloudy with Light Rain 55 12.8 49 9.4 80 80 WSW 15 24 29.77 1008 10 16 0.00 0.00
6:53 am 06:53 Cloudy with Light Rain 55 12.8 49 9.4 80 80 WSW 14 22 29.81 1010 10 16 0.00 0.00
7:53 am 07:53 Cloudy 54 12.2 49 9.4 83 83 WSW 8 13 29.86 1011 10 16 0.00 0.00
8:53 am 08:53 Cloudy 54 12.2 48 8.9 80 80 W 9 15 29.91 1013 10 16 0.00 0.00
9:53 am 09:53 Cloudy 54 12.2 48 8.9 80 80 W 9 15 29.95 1014 10 16 0.00 0.00
10:53 am 10:53 Cloudy 55 12.8 48 8.9 77 77 W 7 11 29.97 1015 10 16 0.00 0.00
11:53 am 11:53 Mostly Cloudy 57 13.9 47 8.3 69 69 W 8 13 29.99 1016 10 16 0.00 0.00
12:18 pm 12:18 Mostly Sunny 58 14.4 47 8.3 67 67 VRB 6 9 30.00 1016 10 16 0.00 0.00
12:53 pm 12:53 Mostly Cloudy 60 15.6 49 9.4 67 67 W 8 13 29.99 1016 10 16 0.00 0.00
1:07 pm 13:07 Partly Cloudy 61 16.1 48 8.9 63 63 WSW 8 13 30.00 1016 10 16 0.00 0.00
1:53 pm 13:53 Sunny 62 16.7 47 8.3 58 58 WSW 8 13 29.99 1016 10 16 0.00 0.00
2:53 pm 14:53 Sunny 64 17.8 47 8.3 54 54 VRB 7 11 29.99 1016 10 16 0.00 0.00
3:53 pm 15:53 Sunny 65 18.3 45 7.2 49 49 WSW 7 11 30.00 1016 10 16 0.00 0.00
4:53 pm 16:53 Sunny 65 18.3 45 7.2 49 49 VRB 3 6 30.01 1016 10 16 0.00 0.00
5:53 pm 17:53 Sunny 63 17.2 46 7.8 54 54 VRB 5 7 30.02 1017 10 16 0.00 0.00
6:53 pm 18:53 Clear 55 12.8 47 8.3 74 74 Calm 30.03 1017 10 16 0.00 0.00
7:53 pm 19:53 Clear 48 8.9 46 7.8 93 93 Calm 30.04 1017 10 16 0.00 0.00
8:53 pm 20:53 Clear 45 7.2 43 6.1 93 93 Calm 30.06 1018 10 16 0.00 0.00
9:53 pm 21:53 Clear 43 6.1 41 5 93 93 Calm 30.07 1018 10 16 0.00 0.00
10:53 pm 22:53 Clear 42 5.6 41 5 96 96 Calm 30.08 1019 10 16 0.00 0.00
11:53 pm 23:53 Clear 41 5 39 3.9 93 93 Calm 30.09 1019 10 16 0.00 0.00

Powered by AerisWeather